Main page
Satellite images Climate Cyclones Lightning AirportsFAQ Languages Contact Newsletter About
Weather : Europe Africa North America South America Asia Australia-Oceania Others

, Bangkok-Suvarnabhumi, Suvarnabhumi Airport

latitude: , longitude: Thailand, elevation: 13-40-52N m


METAR: VTBS 241300Z 15006KT 9999 FEW020 29/18 Q1013 NOSIG